Regional Weather Roundup
Issued by NWS

Home | Current Version | Previous Version | Text Only | Print | Product List | Glossary On
Versions: 1 2 3 4 5 6 7 8 9 10 11 12 13 14 15 16 17 18 19 20 21 22 23 24 25 26 27 28 29 30 31 32 33 34 35 36 37 38 39 40 41 42 43 44 45 46 47 48 49 50
000
ASUS43 KBIS 241202
RWRND

NORTH DAKOTA REGIONAL WEATHER ROUNDUP
NATIONAL WEATHER SERVICE BISMARCK ND
700 AM CDT FRI MAR 24 2017

NOTE: "FAIR" INDICATES FEW OR NO CLOUDS BELOW 12,000 FEET WITH NO
SIGNIFICANT WEATHER AND/OR OBSTRUCTIONS TO VISIBILITY.


NDZ001>003-009>011-017-241300-
NORTHWEST NORTH DAKOTA

CITY           SKY/WX    TMP DP  RH WIND       PRES   REMARKS
WILLISTON      FAIR      24  22  91 CALM      30.08R
6HR MIN TEMP:  24; 6HR MAX TEMP:  33;

MINOT          FAIR      26  23  88 NW6       30.10R WCI  19
MINOT AFB      CLEAR     25  23  92 N6        30.10R WCI  18
$$

NDZ018>021-031>035-040>046-241300-
SOUTHWEST NORTH DAKOTA

CITY           SKY/WX    TMP DP  RH WIND       PRES   REMARKS
BISMARCK       FAIR      28  26  92 CALM      30.08R
6HR MIN TEMP:  26; 6HR MAX TEMP:  39;

DICKINSON      FAIR      27  26  96 N3        30.03R
GARRISON         N/A     26  23  88 N10       30.07R WCI  16
6HR MIN TEMP:  26; 6HR MAX TEMP:  32;

HETTINGER ARPT PTCLDY    29  28  96 NW5       30.04R
$$

NDZ004>008-012>016-024-026-027-054-241300-
NORTHEAST NORTH DAKOTA

CITY           SKY/WX    TMP DP  RH WIND       PRES   REMARKS
GRAND FORKS    CLOUDY    30  27  88 N10       30.06R
GRND FRKS AFB  CLEAR     28  25  86 N13       30.07R WCI  18
DEVILS LAKE    FAIR      25  23  92 N9        30.10R WCI  15
$$

NDZ022-023-025-028>030-036>039-047>053-241300-
SOUTHEAST NORTH DAKOTA

CITY           SKY/WX    TMP DP  RH WIND       PRES   REMARKS
FARGO          CLOUDY    35  33  92 N12       30.02R FOG
6HR MIN TEMP:  34; 6HR MAX TEMP:  35;

JAMESTOWN      FAIR      30  28  92 NW9       30.05R
$$




USA.gov is the U.S. government's official web portal to all federal, state and local government web resources and services.